Terug naar catalogus

FENGYUN 1C DEB

ActiefSSO
NORAD 39537·DEBRIS·🇨🇳 China

Gelanceerd May 10, 1999 vanaf Taiyuan Satellite Launch Center

Loading…

Volgende Passages (komende 24 uur)

TLE

VerouderendSource: Space-Track

Epoch: Sep 9, 2026, 08:47 UTC

1 39537U 99025EWE 26252.36657958  .00001039  00000-0  85038-3 0  9998
2 39537  99.1703  36.8397 0170759 335.5272  23.7847 13.85322920630027

Volg FENGYUN 1C DEB in realtime met AllMySat

Download on the App Store